Weather History for KGWR - January, 2013

Change the Weather History Date:

Wednesday, January 9, 2013

  Actual Average (KP67) Record (KP67)
Temperature  
Mean Temperature 26 °F -  
Max Temperature 33 °F 13 °F 17 °F (1997)
Min Temperature 19 °F -2 °F -9 °F (1997)
Degree Days  
Heating Degree Days 39    
Moisture  
Dew Point 22 °F    
Average Humidity 80    
Maximum Humidity 100    
Minimum Humidity 65    
Precipitation  
Precipitation 0.00 in - - ()
Sea Level Pressure  
Sea Level Pressure 30.08 in    
Wind  
Wind Speed 16 mph (SW)    
Max Wind Speed 30 mph    
Max Gust Speed 38 mph    
Visibility 10 miles    
Events      
Averages and records for this station are not official NWS values.
T = Trace of Precipitation, MM = Missing Value Source: NWS Daily Summary

Daily Weather History Graph

Daily Weather History Graph

Search for Another Location

Airport or City:

Trip Planner

Search our weather history database for the weather conditions in past years. The results will help you decide how hot, cold, wet, or windy it might be!

Date:

Astronomy

Jan. 09, 2013 Rise Set
Actual Time 8:11 AM CST 5:04 PM CST
Civil Twilight 7:37 AM CST 5:38 PM CST
Nautical Twilight 7:00 AM CST 6:15 PM CST
Astronomical Twilight 6:24 AM CST 6:51 PM CST
Moon 5:52 AM CST (1/9) 3:06 PM CST (1/9)
Length of Visible Light 10h 00m
Length of Day
8h 52m
Waning Crescent, 6% of the Moon is Illuminated
Jan 9
Waning Crescent
Jan 11
New
Jan 18
First Quarter
Jan 26
Full
Feb 3
Last Quarter

Hourly Weather History & Observations

Time (CST) Temp. Windchill Dew Point Humidity Pressure Visibility Wind Dir Wind Speed Gust Speed Precip Events Conditions
12:15 AM 33.8 °F 20.8 °F 28.4 °F 81% 29.85 in 10.0 mi West 26.5 mph 34.5 mph 0.00 in   Clear
12:35 AM 33.8 °F 20.1 °F 26.6 °F 75% 29.85 in 10.0 mi West 29.9 mph 36.8 mph 0.00 in   Clear
12:55 AM 33.8 °F 20.3 °F 24.8 °F 70% 29.87 in 10.0 mi West 28.8 mph 38.0 mph 0.00 in   Clear
1:15 AM 33.8 °F 21.0 °F 23.0 °F 65% 29.88 in 10.0 mi WNW 25.3 mph 38.0 mph 0.00 in   Clear
1:35 AM 32.0 °F 18.6 °F 26.6 °F 80% 29.89 in 10.0 mi West 25.3 mph 33.4 mph 0.00 in   Clear
1:55 AM 32.0 °F 18.9 °F 24.8 °F 75% 29.90 in 10.0 mi West 24.2 mph 33.4 mph 0.00 in   Clear
2:15 AM 32.0 °F 18.4 °F 24.8 °F 75% 29.93 in 10.0 mi West 26.5 mph 32.2 mph 0.00 in   Clear
2:35 AM 32.0 °F 19.2 °F 23.0 °F 69% 29.94 in 10.0 mi West 23.0 mph 32.2 mph 0.00 in   Clear
2:55 AM 32.0 °F 18.9 °F 23.0 °F 69% 29.96 in 10.0 mi West 24.2 mph 29.9 mph 0.00 in   Clear
3:15 AM 32.0 °F 19.5 °F 23.0 °F 69% 29.98 in 10.0 mi West 21.9 mph 28.8 mph 0.00 in   Clear
3:35 AM 30.2 °F 17.4 °F 21.2 °F 69% 29.99 in 10.0 mi West 20.7 mph 27.6 mph 0.00 in   Clear
3:55 AM 30.2 °F 18.5 °F 21.2 °F 69% 30.00 in 10.0 mi West 17.3 mph - 0.00 in   Clear
4:15 AM 28.4 °F 15.4 °F 21.2 °F 74% 30.02 in 10.0 mi West 19.6 mph - 0.00 in   Clear
4:35 AM 28.4 °F 16.6 °F 21.2 °F 74% 30.03 in 10.0 mi West 16.1 mph - 0.00 in   Clear
4:55 AM 28.4 °F 16.6 °F 19.4 °F 69% 30.05 in 10.0 mi West 16.1 mph - 0.00 in   Clear
5:15 AM 26.6 °F 15.2 °F 19.4 °F 74% 30.06 in 10.0 mi WSW 13.8 mph - 0.00 in   Clear
5:35 AM 26.6 °F 16.2 °F 19.4 °F 74% 30.07 in 10.0 mi WSW 11.5 mph - 0.00 in   Clear
5:55 AM 23.0 °F 13.1 °F 17.6 °F 80% 30.08 in 10.0 mi WSW 9.2 mph - 0.00 in   Clear
6:15 AM 21.2 °F 9.5 °F 17.6 °F 86% 30.09 in 10.0 mi WSW 11.5 mph - 0.00 in   Clear
6:35 AM 21.2 °F 8.9 °F 15.8 °F 80% 30.10 in 10.0 mi WSW 12.7 mph - 0.00 in   Clear
6:55 AM 21.2 °F 10.1 °F 15.8 °F 80% 30.12 in 10.0 mi WSW 10.4 mph - 0.00 in   Clear
7:15 AM 19.4 °F 6.6 °F 15.8 °F 86% 30.13 in 10.0 mi WSW 12.7 mph - 0.00 in   Clear
7:35 AM 19.4 °F 8.6 °F 14.0 °F 80% 30.14 in 10.0 mi WSW 9.2 mph - 0.00 in   Clear
7:55 AM 21.2 °F 10.1 °F 15.8 °F 80% 30.14 in 10.0 mi West 10.4 mph - 0.00 in   Clear
8:35 AM 21.2 °F 11.7 °F 15.8 °F 80% 30.15 in 10.0 mi West 8.1 mph - 0.00 in   Clear
8:55 AM 21.2 °F 10.9 °F 15.8 °F 80% 30.15 in 10.0 mi West 9.2 mph - 0.00 in   Clear
9:15 AM 23.0 °F 11.1 °F 17.6 °F 80% 30.16 in 10.0 mi West 12.7 mph - 0.00 in   Clear
9:35 AM 21.2 °F 10.1 °F 15.8 °F 80% 30.17 in 10.0 mi West 10.4 mph - 0.00 in   Clear
9:55 AM 23.0 °F 13.1 °F 17.6 °F 80% 30.18 in 10.0 mi West 9.2 mph - 0.00 in   Clear
10:15 AM 24.8 °F 15.3 °F 19.4 °F 80% 30.19 in 10.0 mi West 9.2 mph - 0.00 in   Clear
10:35 AM 26.6 °F 19.1 °F 19.4 °F 74% 30.18 in 10.0 mi West 6.9 mph - 0.00 in   Clear
10:55 AM 26.6 °F 18.2 °F 19.4 °F 74% 30.18 in 10.0 mi West 8.1 mph - 0.00 in   Clear
11:15 AM 28.4 °F 21.2 °F 19.4 °F 69% 30.18 in 10.0 mi WNW 6.9 mph - 0.00 in   Clear
11:55 AM 30.2 °F 21.3 °F 21.2 °F 69% 30.18 in 10.0 mi WNW 10.4 mph - 0.00 in   Clear
12:15 PM 30.2 °F 23.4 °F 21.2 °F 69% 30.19 in 10.0 mi SW 6.9 mph - 0.00 in   Clear
12:35 PM 30.2 °F 25.4 °F 21.2 °F 69% 30.19 in 10.0 mi SSW 4.6 mph - 0.00 in   Clear
12:55 PM 32.0 °F 23.6 °F 23.0 °F 69% 30.20 in 10.0 mi South 10.4 mph - 0.00 in   Clear
1:15 PM 30.2 °F 20.8 °F 23.0 °F 75% 30.20 in 10.0 mi SSW 11.5 mph - 0.00 in   Clear
1:35 PM 30.2 °F 20.2 °F 23.0 °F 75% 30.20 in 10.0 mi SSW 12.7 mph - 0.00 in   Clear
1:55 PM 32.0 °F 21.6 °F 23.0 °F 69% 30.20 in 10.0 mi SSW 15.0 mph - 0.00 in   Clear
2:15 PM 32.0 °F 23.6 °F 23.0 °F 69% 30.20 in 10.0 mi South 10.4 mph - 0.00 in   Clear
2:35 PM 32.0 °F 23.0 °F 24.8 °F 75% 30.20 in 10.0 mi South 11.5 mph - 0.00 in   Clear
2:55 PM 32.0 °F 24.2 °F 24.8 °F 75% 30.20 in 10.0 mi South 9.2 mph - 0.00 in   Clear
3:15 PM 32.0 °F 23.6 °F 26.6 °F 80% 30.19 in 10.0 mi South 10.4 mph - 0.00 in   Clear
3:35 PM 32.0 °F 23.6 °F 26.6 °F 80% 30.20 in 10.0 mi South 10.4 mph - 0.00 in   Clear
3:55 PM 32.0 °F 24.2 °F 26.6 °F 80% 30.19 in 10.0 mi SSE 9.2 mph - 0.00 in   Clear
4:15 PM 32.0 °F 25.6 °F 26.6 °F 80% 30.18 in 10.0 mi SSE 6.9 mph - 0.00 in   Clear
4:35 PM 32.0 °F 25.6 °F 26.6 °F 80% 30.17 in 10.0 mi SE 6.9 mph - 0.00 in   Clear
4:55 PM 32.0 °F 24.2 °F 26.6 °F 80% 30.15 in 10.0 mi SE 9.2 mph - 0.00 in   Clear
5:15 PM 30.2 °F 21.9 °F 26.6 °F 86% 30.15 in 10.0 mi SE 9.2 mph - 0.00 in   Clear
5:35 PM 28.4 °F 19.7 °F 24.8 °F 86% 30.14 in 10.0 mi SE 9.2 mph - 0.00 in   Clear
5:55 PM 28.4 °F 18.5 °F 24.8 °F 86% 30.13 in 10.0 mi SE 11.5 mph - 0.00 in   Clear
6:15 PM 28.4 °F 18.0 °F 24.8 °F 86% 30.12 in 10.0 mi SSE 12.7 mph - 0.00 in   Clear
6:35 PM 28.4 °F 18.0 °F 24.8 °F 86% 30.11 in 10.0 mi SSE 12.7 mph - 0.00 in   Clear
6:55 PM 28.4 °F 19.7 °F 24.8 °F 86% 30.10 in 10.0 mi SSE 9.2 mph - 0.00 in   Clear
7:15 PM 26.6 °F 18.2 °F 23.0 °F 86% 30.09 in 10.0 mi SSE 8.1 mph - 0.00 in   Clear
7:35 PM 26.6 °F 22.6 °F 23.0 °F 86% 30.08 in 10.0 mi SE 3.5 mph - 0.00 in   Clear
7:55 PM 24.8 °F 17.9 °F 21.2 °F 86% 30.06 in 10.0 mi SE 5.8 mph - 0.00 in   Clear
8:15 PM 24.8 °F 17.9 °F 23.0 °F 93% 30.05 in 10.0 mi SE 5.8 mph - 0.00 in   Clear
8:35 PM 24.8 °F - 23.0 °F 93% 30.05 in 10.0 mi Calm Calm - 0.00 in   Clear
8:55 PM 23.0 °F 17.0 °F 23.0 °F 100% 30.04 in 10.0 mi SSE 4.6 mph - 0.00 in   Clear
9:15 PM 23.0 °F - 23.0 °F 100% 30.04 in 10.0 mi Calm Calm - 0.00 in   Clear
9:35 PM 24.8 °F 15.3 °F 23.0 °F 93% 30.03 in 10.0 mi South 9.2 mph - 0.00 in   Clear
9:55 PM 23.0 °F 15.8 °F 21.2 °F 93% 30.02 in 10.0 mi South 5.8 mph - 0.00 in   Clear
10:15 PM 23.0 °F 15.8 °F 21.2 °F 93% 30.02 in 10.0 mi South 5.8 mph - 0.00 in   Clear
10:35 PM 24.8 °F 16.9 °F 23.0 °F 93% 30.00 in 10.0 mi South 6.9 mph - 0.00 in   Clear
10:55 PM 24.8 °F 17.9 °F 23.0 °F 93% 30.00 in 10.0 mi South 5.8 mph - 0.00 in   Clear
11:15 PM 24.8 °F 16.9 °F 23.0 °F 93% 30.01 in 10.0 mi South 6.9 mph - 0.00 in   Clear
11:35 PM 23.0 °F 11.7 °F 21.2 °F 93% 30.00 in 10.0 mi South 11.5 mph - 0.00 in   Clear
11:55 PM 26.6 °F 15.7 °F 23.0 °F 86% 30.00 in 10.0 mi South 12.7 mph - 0.00 in   Clear